Time,TemperatureF,DewpointF,PressureIn,WindDirection,WindDirectionDegrees,WindSpeedMPH,WindSpeedGustMPH,Humidity,HourlyPrecipIn,Conditions,Clouds,dailyrainin,SolarRadiationWatts/m^2,SoftwareType,DateUTC
2013-09-18 00:03:00,58.6,51.4,30.01,WSW,238,0.0,2.0,77,0.00,,,0.00,0.0,meteohub,2013-09-18 07:03:00,
2013-09-18 00:08:00,58.5,51.3,30.01,WSW,238,0.0,2.0,77,0.00,,,0.00,0.0,meteohub,2013-09-18 07:08:00,
2013-09-18 00:13:00,58.5,51.3,30.01,WSW,238,0.0,2.0,77,0.00,,,0.00,0.0,meteohub,2013-09-18 07:13:00,
2013-09-18 00:18:00,58.3,51.4,30.01,WSW,238,0.0,2.0,78,0.00,,,0.00,0.0,meteohub,2013-09-18 07:18:00,
2013-09-18 00:23:00,58.3,51.4,30.01,WSW,238,0.0,2.0,78,0.00,,,0.00,0.0,meteohub,2013-09-18 07:23:00,
2013-09-18 00:28:00,58.1,50.9,30.01,WSW,238,0.0,2.0,77,0.00,,,0.00,0.0,meteohub,2013-09-18 07:28:00,
2013-09-18 00:33:00,58.3,51.1,30.01,WSW,238,0.0,2.0,77,0.00,,,0.00,0.0,meteohub,2013-09-18 07:33:00,
2013-09-18 00:39:00,58.3,50.7,30.01,WSW,238,0.0,2.0,76,0.00,,,0.00,0.0,meteohub,2013-09-18 07:39:00,
2013-09-18 00:44:00,58.5,50.9,30.00,WSW,238,1.0,2.0,76,0.00,,,0.00,0.0,meteohub,2013-09-18 07:44:00,
2013-09-18 00:49:00,58.6,50.7,30.00,WSW,238,0.0,2.0,75,0.00,,,0.00,0.0,meteohub,2013-09-18 07:49:00,
2013-09-18 00:54:00,58.5,50.5,30.00,WSW,238,2.0,2.0,75,0.00,,,0.00,0.0,meteohub,2013-09-18 07:54:00,
2013-09-18 00:59:00,58.5,50.5,30.00,SW,219,0.0,2.0,75,0.00,,,0.00,0.0,meteohub,2013-09-18 07:59:00,
2013-09-18 01:04:00,58.5,50.5,30.00,SW,219,0.0,4.0,75,0.00,,,0.00,0.0,meteohub,2013-09-18 08:04:00,
2013-09-18 01:09:00,58.6,50.4,30.00,SW,224,0.0,4.0,74,0.00,,,0.00,0.0,meteohub,2013-09-18 08:09:00,
2013-09-18 01:14:00,58.8,50.5,30.00,SW,224,0.0,4.0,74,0.00,,,0.00,0.0,meteohub,2013-09-18 08:14:00,
2013-09-18 01:19:00,59.0,50.4,30.00,SW,224,1.0,4.0,73,0.00,,,0.00,0.0,meteohub,2013-09-18 08:19:00,
2013-09-18 01:24:00,58.8,50.2,30.00,SW,224,0.0,4.0,73,0.00,,,0.00,0.0,meteohub,2013-09-18 08:24:00,
2013-09-18 01:29:00,58.8,50.2,30.00,SW,224,0.0,2.0,73,0.00,,,0.00,0.0,meteohub,2013-09-18 08:29:00,
2013-09-18 01:34:00,58.6,50.4,30.01,SW,224,0.0,2.0,74,0.00,,,0.00,0.0,meteohub,2013-09-18 08:34:00,
2013-09-18 01:39:00,58.3,50.0,30.01,SW,224,0.0,2.0,74,0.00,,,0.00,0.0,meteohub,2013-09-18 08:39:00,
2013-09-18 01:44:00,58.3,50.4,30.01,SW,224,0.0,2.0,75,0.00,,,0.00,0.0,meteohub,2013-09-18 08:44:00,
2013-09-18 01:49:00,58.1,49.8,30.01,SW,224,0.0,1.0,74,0.00,,,0.00,0.0,meteohub,2013-09-18 08:49:00,
2013-09-18 01:54:00,57.9,50.0,30.01,SW,224,0.0,1.0,75,0.00,,,0.00,0.0,meteohub,2013-09-18 08:54:00,
2013-09-18 01:59:00,57.9,49.6,30.01,SW,224,0.0,1.0,74,0.00,,,0.00,0.0,meteohub,2013-09-18 08:59:00,
2013-09-18 02:04:00,57.7,49.8,30.01,SW,224,0.0,1.0,75,0.00,,,0.00,0.0,meteohub,2013-09-18 09:04:00,
2013-09-18 02:09:00,57.7,49.5,30.01,SW,224,0.0,1.0,74,0.00,,,0.00,0.0,meteohub,2013-09-18 09:09:00,
2013-09-18 02:14:00,57.7,49.5,30.01,SW,224,0.0,1.0,74,0.00,,,0.00,0.0,meteohub,2013-09-18 09:14:00,
2013-09-18 02:19:00,57.7,49.5,30.01,SW,224,0.0,2.0,74,0.00,,,0.00,0.0,meteohub,2013-09-18 09:19:00,
2013-09-18 02:24:00,57.7,49.5,30.01,SW,224,1.0,2.0,74,0.00,,,0.00,0.0,meteohub,2013-09-18 09:24:00,
2013-09-18 02:29:00,57.7,49.1,30.01,SW,224,0.0,2.0,73,0.00,,,0.00,0.0,meteohub,2013-09-18 09:29:00,
2013-09-18 02:34:00,57.7,49.5,30.01,SW,224,0.0,1.0,74,0.00,,,0.00,0.0,meteohub,2013-09-18 09:34:00,
2013-09-18 02:40:00,57.7,49.5,30.00,SW,224,0.0,1.0,74,0.00,,,0.00,0.0,meteohub,2013-09-18 09:40:00,
2013-09-18 02:45:00,57.6,49.3,30.00,SW,224,0.0,1.0,74,0.00,,,0.00,0.0,meteohub,2013-09-18 09:45:00,
2013-09-18 02:50:00,57.6,48.9,30.00,SW,224,0.0,0.0,73,0.00,,,0.00,0.0,meteohub,2013-09-18 09:50:00,
2013-09-18 02:55:00,57.4,49.1,30.00,SW,224,0.0,0.0,74,0.00,,,0.00,0.0,meteohub,2013-09-18 09:55:00,
2013-09-18 03:00:00,57.2,48.9,30.00,SW,224,0.0,0.0,74,0.00,,,0.00,0.0,meteohub,2013-09-18 10:00:00,
2013-09-18 03:05:00,57.0,48.7,30.00,SW,224,0.0,0.0,74,0.00,,,0.00,0.0,meteohub,2013-09-18 10:05:00,
2013-09-18 03:10:00,56.8,48.9,30.00,SW,224,0.0,0.0,75,0.00,,,0.00,0.0,meteohub,2013-09-18 10:10:00,
2013-09-18 03:15:00,56.8,48.9,30.00,SW,224,0.0,0.0,75,0.00,,,0.00,0.0,meteohub,2013-09-18 10:15:00,
2013-09-18 03:20:00,56.7,48.7,30.00,SW,224,0.0,0.0,75,0.00,,,0.00,0.0,meteohub,2013-09-18 10:20:00,
2013-09-18 03:25:00,56.7,48.7,30.00,SW,224,0.0,0.0,75,0.00,,,0.00,0.0,meteohub,2013-09-18 10:25:00,
2013-09-18 03:30:00,56.5,48.7,30.00,SW,224,0.0,0.0,75,0.00,,,0.00,0.0,meteohub,2013-09-18 10:30:00,
2013-09-18 03:35:00,56.1,48.4,30.00,SW,224,0.0,0.0,75,0.00,,,0.00,0.0,meteohub,2013-09-18 10:35:00,
2013-09-18 03:40:00,55.9,48.6,30.00,SW,224,0.0,0.0,76,0.00,,,0.00,0.0,meteohub,2013-09-18 10:40:00,
2013-09-18 03:45:00,55.8,48.7,30.00,SW,224,0.0,0.0,77,0.00,,,0.00,0.0,meteohub,2013-09-18 10:45:00,
2013-09-18 03:50:00,55.6,48.9,30.00,SW,224,0.0,0.0,78,0.00,,,0.00,0.0,meteohub,2013-09-18 10:50:00,
2013-09-18 03:55:00,55.6,48.9,30.00,SW,224,0.0,0.0,78,0.00,,,0.00,0.0,meteohub,2013-09-18 10:55:00,
2013-09-18 04:00:00,55.6,48.9,30.00,SW,224,0.0,0.0,78,0.00,,,0.00,0.0,meteohub,2013-09-18 11:00:00,
2013-09-18 04:05:00,55.6,48.9,30.00,SW,224,0.0,0.0,78,0.00,,,0.00,0.0,meteohub,2013-09-18 11:05:00,
2013-09-18 04:10:00,55.6,48.9,30.00,SW,224,0.0,0.0,78,0.00,,,0.00,0.0,meteohub,2013-09-18 11:10:00,
2013-09-18 04:16:00,55.8,49.3,30.00,SW,224,0.0,0.0,79,0.00,,,0.00,0.0,meteohub,2013-09-18 11:16:00,
2013-09-18 04:21:00,55.8,48.9,30.00,SW,224,0.0,1.0,78,0.00,,,0.00,0.0,meteohub,2013-09-18 11:21:00,
2013-09-18 04:26:00,55.8,48.9,30.00,SW,224,0.0,1.0,78,0.00,,,0.00,0.0,meteohub,2013-09-18 11:26:00,
2013-09-18 04:31:00,55.8,48.9,30.00,SW,224,0.0,1.0,78,0.00,,,0.00,0.0,meteohub,2013-09-18 11:31:00,
2013-09-18 04:37:00,55.8,49.3,30.00,SW,224,0.0,1.0,79,0.00,,,0.00,0.0,meteohub,2013-09-18 11:37:00,
2013-09-18 04:42:00,55.8,48.9,30.00,SW,224,0.0,1.0,78,0.00,,,0.00,0.0,meteohub,2013-09-18 11:42:00,
2013-09-18 04:47:00,55.8,48.9,30.00,SW,224,0.0,1.0,78,0.00,,,0.00,0.0,meteohub,2013-09-18 11:47:00,
2013-09-18 04:52:00,55.8,49.3,30.00,SW,224,0.0,0.0,79,0.00,,,0.00,0.0,meteohub,2013-09-18 11:52:00,
2013-09-18 04:57:00,55.8,49.3,30.00,SW,224,0.0,0.0,79,0.00,,,0.00,0.0,meteohub,2013-09-18 11:57:00,
2013-09-18 05:02:00,55.6,49.1,30.00,SW,224,0.0,0.0,79,0.00,,,0.00,0.0,meteohub,2013-09-18 12:02:00,
2013-09-18 05:07:00,55.6,49.1,30.01,SW,224,0.0,0.0,79,0.00,,,0.00,0.0,meteohub,2013-09-18 12:07:00,
2013-09-18 05:12:00,55.6,49.1,30.01,SW,224,0.0,1.0,79,0.00,,,0.00,0.0,meteohub,2013-09-18 12:12:00,
2013-09-18 05:17:00,55.8,49.3,30.01,SW,224,0.0,1.0,79,0.00,,,0.00,0.0,meteohub,2013-09-18 12:17:00,
2013-09-18 05:22:00,55.8,49.3,30.01,SW,224,0.0,1.0,79,0.00,,,0.00,0.0,meteohub,2013-09-18 12:22:00,
2013-09-18 05:27:00,55.8,49.3,30.01,SW,224,0.0,1.0,79,0.00,,,0.00,0.0,meteohub,2013-09-18 12:27:00,
2013-09-18 05:32:00,55.8,49.3,30.01,SW,224,0.0,1.0,79,0.00,,,0.00,0.0,meteohub,2013-09-18 12:32:00,
2013-09-18 05:37:00,55.6,49.1,30.01,SW,224,0.0,1.0,79,0.00,,,0.00,0.0,meteohub,2013-09-18 12:37:00,
2013-09-18 05:42:00,55.6,49.1,30.01,SW,224,0.0,0.0,79,0.00,,,0.00,0.0,meteohub,2013-09-18 12:42:00,
2013-09-18 05:47:00,55.6,49.1,30.01,SW,224,0.0,0.0,79,0.00,,,0.00,0.0,meteohub,2013-09-18 12:47:00,
2013-09-18 05:52:00,55.4,48.9,30.01,SW,224,0.0,0.0,79,0.00,,,0.00,0.0,meteohub,2013-09-18 12:52:00,
2013-09-18 05:57:00,55.4,48.9,30.01,SW,224,0.0,1.0,79,0.00,,,0.00,0.0,meteohub,2013-09-18 12:57:00,
2013-09-18 06:02:00,55.4,48.9,30.01,SW,224,0.0,1.0,79,0.00,,,0.00,0.0,meteohub,2013-09-18 13:02:00,
2013-09-18 06:07:00,55.4,48.9,30.01,SW,224,0.0,1.0,79,0.00,,,0.00,0.0,meteohub,2013-09-18 13:07:00,
2013-09-18 06:12:00,55.4,48.9,30.01,SW,224,0.0,1.0,79,0.00,,,0.00,0.0,meteohub,2013-09-18 13:12:00,
2013-09-18 06:17:00,55.2,48.7,30.02,SW,224,0.0,1.0,79,0.00,,,0.00,0.0,meteohub,2013-09-18 13:17:00,
2013-09-18 06:22:00,55.2,48.7,30.02,SW,224,0.0,0.0,79,0.00,,,0.00,0.0,meteohub,2013-09-18 13:22:00,
2013-09-18 06:27:00,55.2,48.7,30.02,SW,224,0.0,0.0,79,0.00,,,0.00,0.0,meteohub,2013-09-18 13:27:00,
2013-09-18 06:32:00,55.2,48.7,30.02,SW,224,0.0,0.0,79,0.00,,,0.00,0.0,meteohub,2013-09-18 13:32:00,
2013-09-18 06:37:00,55.0,48.9,30.02,SW,224,0.0,0.0,80,0.00,,,0.00,0.0,meteohub,2013-09-18 13:37:00,
2013-09-18 06:43:00,55.0,48.9,30.02,SW,224,0.0,0.0,80,0.00,,,0.00,0.0,meteohub,2013-09-18 13:43:00,
2013-09-18 06:48:00,55.0,48.9,30.02,SW,224,0.0,0.0,80,0.00,,,0.00,0.0,meteohub,2013-09-18 13:48:00,
2013-09-18 06:53:00,55.0,48.9,30.02,SW,224,0.0,0.0,80,0.00,,,0.00,0.0,meteohub,2013-09-18 13:53:00,
2013-09-18 06:58:00,55.0,48.9,30.03,SW,224,0.0,1.0,80,0.00,,,0.00,0.0,meteohub,2013-09-18 13:58:00,
2013-09-18 07:04:00,55.0,48.9,30.03,SW,224,0.0,1.0,80,0.00,,,0.00,7.0,meteohub,2013-09-18 14:04:00,
2013-09-18 07:09:00,55.0,48.9,30.03,SW,224,0.0,1.0,80,0.00,,,0.00,9.0,meteohub,2013-09-18 14:09:00,
2013-09-18 07:14:00,55.0,48.9,30.03,SW,224,0.0,1.0,80,0.00,,,0.00,11.0,meteohub,2013-09-18 14:14:00,
2013-09-18 07:19:00,55.2,49.1,30.03,SW,224,0.0,1.0,80,0.00,,,0.00,11.0,meteohub,2013-09-18 14:19:00,
2013-09-18 07:24:00,55.2,49.1,30.03,SW,224,0.0,1.0,80,0.00,,,0.00,12.0,meteohub,2013-09-18 14:24:00,
2013-09-18 07:30:00,55.4,49.3,30.03,SW,224,0.0,0.0,80,0.00,,,0.00,14.0,meteohub,2013-09-18 14:30:00,
2013-09-18 07:35:00,55.6,49.5,30.03,SW,224,0.0,0.0,80,0.00,,,0.00,21.0,meteohub,2013-09-18 14:35:00,
2013-09-18 07:41:00,55.6,49.5,30.04,SW,224,0.0,1.0,80,0.00,,,0.00,32.0,meteohub,2013-09-18 14:41:00,
2013-09-18 07:46:00,55.6,49.5,30.04,SW,224,0.0,1.0,80,0.00,,,0.00,39.0,meteohub,2013-09-18 14:46:00,
2013-09-18 07:51:00,55.8,49.6,30.04,SW,224,0.0,1.0,80,0.00,,,0.00,32.0,meteohub,2013-09-18 14:51:00,
2013-09-18 07:56:00,55.9,49.8,30.04,SW,224,0.0,0.0,80,0.00,,,0.00,23.0,meteohub,2013-09-18 14:56:00,
2013-09-18 08:01:00,55.9,49.5,30.04,SW,224,0.0,0.0,79,0.00,,,0.00,14.0,meteohub,2013-09-18 15:01:00,
2013-09-18 08:07:00,56.1,49.6,30.04,SW,224,0.0,0.0,79,0.00,,,0.00,11.0,meteohub,2013-09-18 15:07:00,
2013-09-18 08:12:00,56.3,49.5,30.04,SW,224,0.0,1.0,78,0.00,,,0.00,12.0,meteohub,2013-09-18 15:12:00,
2013-09-18 08:17:00,56.5,49.6,30.04,SW,224,0.0,1.0,78,0.00,,,0.00,12.0,meteohub,2013-09-18 15:17:00,
2013-09-18 08:22:00,56.7,49.5,30.04,SW,224,0.0,1.0,77,0.00,,,0.00,14.0,meteohub,2013-09-18 15:22:00,
2013-09-18 08:27:00,56.8,49.6,30.03,SW,224,0.0,0.0,77,0.00,,,0.00,18.0,meteohub,2013-09-18 15:27:00,
2013-09-18 08:32:00,56.8,49.6,30.04,SW,224,0.0,0.0,77,0.00,,,0.00,18.0,meteohub,2013-09-18 15:32:00,
2013-09-18 08:37:00,57.0,49.5,30.03,West,268,0.0,0.0,76,0.00,,,0.00,18.0,meteohub,2013-09-18 15:37:00,
2013-09-18 08:42:00,57.4,49.5,30.03,West,268,0.0,0.0,75,0.00,,,0.00,18.0,meteohub,2013-09-18 15:42:00,
2013-09-18 08:47:00,57.7,49.5,30.04,West,268,0.0,0.0,74,0.00,,,0.00,19.0,meteohub,2013-09-18 15:47:00,
2013-09-18 08:53:00,58.3,49.6,30.04,West,268,0.0,0.0,73,0.00,,,0.00,19.0,meteohub,2013-09-18 15:53:00,
2013-09-18 08:58:00,58.6,50.0,30.04,West,268,0.0,0.0,73,0.00,,,0.00,19.0,meteohub,2013-09-18 15:58:00,
2013-09-18 09:01:00,59.0,50.0,30.04,West,268,0.0,1.0,72,0.00,,,0.00,21.0,meteohub,2013-09-18 16:01:00,
2013-09-18 09:07:00,59.4,50.4,30.04,West,268,0.0,1.0,72,0.00,,,0.00,21.0,meteohub,2013-09-18 16:07:00,
2013-09-18 09:12:00,59.7,50.0,30.04,West,268,0.0,1.0,70,0.00,,,0.00,21.0,meteohub,2013-09-18 16:12:00,
2013-09-18 09:17:00,60.1,49.8,30.04,West,268,0.0,1.0,69,0.00,,,0.00,23.0,meteohub,2013-09-18 16:17:00,
2013-09-18 09:22:00,60.3,48.9,30.04,West,268,0.0,0.0,66,0.00,,,0.00,26.0,meteohub,2013-09-18 16:22:00,
2013-09-18 09:27:00,61.0,50.0,30.04,West,268,0.0,1.0,67,0.00,,,0.00,23.0,meteohub,2013-09-18 16:27:00,
2013-09-18 09:32:00,61.3,49.8,30.04,West,268,0.0,1.0,66,0.00,,,0.00,23.0,meteohub,2013-09-18 16:32:00,
2013-09-18 09:37:00,61.9,50.4,30.04,West,268,0.0,1.0,66,0.00,,,0.00,25.0,meteohub,2013-09-18 16:37:00,
2013-09-18 09:42:00,62.4,50.5,30.04,West,268,1.0,1.0,65,0.00,,,0.00,25.0,meteohub,2013-09-18 16:42:00,
2013-09-18 09:47:00,63.0,50.2,30.04,West,268,0.0,2.0,63,0.00,,,0.00,25.0,meteohub,2013-09-18 16:47:00,
2013-09-18 09:52:00,63.9,49.6,30.04,SSW,196,1.0,3.0,60,0.00,,,0.00,26.0,meteohub,2013-09-18 16:52:00,
2013-09-18 09:58:00,64.6,49.5,30.04,SSW,196,0.0,4.0,58,0.00,,,0.00,26.0,meteohub,2013-09-18 16:58:00,
2013-09-18 10:03:00,64.8,49.6,30.04,South,178,0.0,4.0,58,0.00,,,0.00,28.0,meteohub,2013-09-18 17:03:00,
2013-09-18 10:08:00,65.7,49.1,30.04,ENE,69,3.0,4.0,55,0.00,,,0.00,30.0,meteohub,2013-09-18 17:08:00,
2013-09-18 10:13:00,66.6,48.9,30.04,ENE,69,1.0,3.0,53,0.00,,,0.00,30.0,meteohub,2013-09-18 17:13:00,
2013-09-18 10:18:00,67.3,48.6,30.04,ENE,69,2.0,5.0,51,0.00,,,0.00,32.0,meteohub,2013-09-18 17:18:00,
2013-09-18 10:24:00,67.8,49.1,30.04,ENE,69,0.0,5.0,51,0.00,,,0.00,33.0,meteohub,2013-09-18 17:24:00,
2013-09-18 10:29:00,68.4,48.4,30.04,ENE,69,0.0,3.0,49,0.00,,,0.00,35.0,meteohub,2013-09-18 17:29:00,
2013-09-18 10:34:00,68.7,47.7,30.04,ENE,69,0.0,3.0,47,0.00,,,0.00,37.0,meteohub,2013-09-18 17:34:00,
2013-09-18 10:39:00,69.3,48.2,30.04,ENE,59,1.0,3.0,47,0.00,,,0.00,39.0,meteohub,2013-09-18 17:39:00,
2013-09-18 10:45:00,69.4,48.4,30.04,North,9,0.0,3.0,47,0.00,,,0.00,40.0,meteohub,2013-09-18 17:45:00,
2013-09-18 10:50:00,69.6,47.8,30.04,North,5,0.0,4.0,46,0.00,,,0.00,42.0,meteohub,2013-09-18 17:50:00,
2013-09-18 10:55:00,70.0,47.7,30.04,NNE,18,0.0,4.0,45,0.00,,,0.00,42.0,meteohub,2013-09-18 17:55:00,
2013-09-18 11:01:00,70.5,47.5,30.04,ESE,116,0.0,3.0,44,0.00,,,0.00,44.0,meteohub,2013-09-18 18:01:00,
2013-09-18 11:06:00,71.1,48.0,30.03,SE,128,0.0,3.0,44,0.00,,,0.00,56.0,meteohub,2013-09-18 18:06:00,
2013-09-18 11:11:00,71.8,47.5,30.03,SE,124,1.0,3.0,42,0.00,,,0.00,251.0,meteohub,2013-09-18 18:11:00,
2013-09-18 11:17:00,72.1,47.8,30.03,ENE,66,2.0,3.0,42,0.00,,,0.00,589.0,meteohub,2013-09-18 18:17:00,
2013-09-18 11:22:00,72.7,46.2,30.03,ENE,75,3.0,3.0,39,0.00,,,0.00,686.0,meteohub,2013-09-18 18:22:00,
2013-09-18 11:27:00,73.0,45.9,30.02,East,82,2.0,4.0,38,0.00,,,0.00,694.0,meteohub,2013-09-18 18:27:00,
2013-09-18 11:32:00,73.4,46.2,30.02,ENE,76,1.0,6.0,38,0.00,,,0.00,705.0,meteohub,2013-09-18 18:32:00,
2013-09-18 11:37:00,73.8,46.6,30.02,East,83,0.0,6.0,38,0.00,,,0.00,715.0,meteohub,2013-09-18 18:37:00,
2013-09-18 11:42:00,74.1,46.9,30.02,NNW,348,3.0,6.0,38,0.00,,,0.00,717.0,meteohub,2013-09-18 18:42:00,
2013-09-18 11:47:00,74.7,47.3,30.02,North,355,0.0,3.0,38,0.00,,,0.00,728.0,meteohub,2013-09-18 18:47:00,
2013-09-18 11:52:00,75.4,46.6,30.02,NE,56,0.0,3.0,36,0.00,,,0.00,738.0,meteohub,2013-09-18 18:52:00,
2013-09-18 11:57:00,75.7,46.9,30.02,ENE,57,1.0,3.0,36,0.00,,,0.00,744.0,meteohub,2013-09-18 18:57:00,
2013-09-18 12:03:00,76.5,46.0,30.02,ENE,67,0.0,3.0,34,0.00,,,0.00,751.0,meteohub,2013-09-18 19:03:00,
2013-09-18 12:09:00,76.8,46.4,30.02,ESE,115,0.0,3.0,34,0.00,,,0.00,758.0,meteohub,2013-09-18 19:09:00,
2013-09-18 12:14:00,77.2,45.9,30.02,East,94,2.0,3.0,33,0.00,,,0.00,763.0,meteohub,2013-09-18 19:14:00,
2013-09-18 12:19:00,77.2,45.9,30.02,ENE,67,0.0,3.0,33,0.00,,,0.00,770.0,meteohub,2013-09-18 19:19:00,
2013-09-18 12:25:00,77.5,46.2,30.02,NW,311,0.0,3.0,33,0.00,,,0.00,775.0,meteohub,2013-09-18 19:25:00,
2013-09-18 12:30:00,77.7,44.6,30.01,ENE,65,1.0,3.0,31,0.00,,,0.00,782.0,meteohub,2013-09-18 19:30:00,
2013-09-18 12:35:00,77.7,45.5,30.01,ENE,60,0.0,3.0,32,0.00,,,0.00,782.0,meteohub,2013-09-18 19:35:00,
2013-09-18 12:41:00,78.4,45.3,30.01,SW,236,3.0,3.0,31,0.00,,,0.00,782.0,meteohub,2013-09-18 19:41:00,
2013-09-18 12:46:00,79.2,45.9,30.01,WSW,242,0.0,7.0,31,0.00,,,0.00,788.0,meteohub,2013-09-18 19:46:00,
2013-09-18 12:51:00,80.2,45.1,30.01,NE,44,0.0,7.0,29,0.00,,,0.00,795.0,meteohub,2013-09-18 19:51:00,
2013-09-18 12:57:00,79.9,43.9,30.01,ENE,69,1.0,7.0,28,0.00,,,0.00,795.0,meteohub,2013-09-18 19:57:00,
2013-09-18 13:02:00,79.9,44.8,30.01,ENE,69,0.0,5.0,29,0.00,,,0.00,795.0,meteohub,2013-09-18 20:02:00,
2013-09-18 13:07:00,80.1,43.0,30.00,NE,50,3.0,5.0,27,0.00,,,0.00,796.0,meteohub,2013-09-18 20:07:00,
2013-09-18 13:12:00,79.9,43.0,30.00,ENE,67,0.0,5.0,27,0.00,,,0.00,795.0,meteohub,2013-09-18 20:12:00,
2013-09-18 13:17:00,80.1,44.1,30.00,North,5,1.0,5.0,28,0.00,,,0.00,796.0,meteohub,2013-09-18 20:17:00,
2013-09-18 13:23:00,80.4,40.3,30.00,NE,49,0.0,5.0,24,0.00,,,0.00,800.0,meteohub,2013-09-18 20:23:00,
2013-09-18 13:28:00,81.0,41.9,30.00,ENE,61,2.0,5.0,25,0.00,,,0.00,800.0,meteohub,2013-09-18 20:28:00,
2013-09-18 13:34:00,81.0,39.7,29.99,South,179,1.0,5.0,23,0.00,,,0.00,798.0,meteohub,2013-09-18 20:34:00,
2013-09-18 13:40:00,81.9,40.5,29.99,ENE,74,2.0,5.0,23,0.00,,,0.00,796.0,meteohub,2013-09-18 20:40:00,
2013-09-18 13:45:00,81.7,40.3,29.99,ENE,59,3.0,4.0,23,0.00,,,0.00,791.0,meteohub,2013-09-18 20:45:00,
2013-09-18 13:50:00,81.3,39.9,29.99,ENE,71,0.0,5.0,23,0.00,,,0.00,786.0,meteohub,2013-09-18 20:50:00,
2013-09-18 13:56:00,81.3,39.9,29.99,ENE,69,2.0,5.0,23,0.00,,,0.00,782.0,meteohub,2013-09-18 20:56:00,
2013-09-18 14:01:00,81.9,40.5,29.98,ENE,71,0.0,5.0,23,0.00,,,0.00,773.0,meteohub,2013-09-18 21:01:00,
2013-09-18 14:06:00,82.2,40.8,29.98,ENE,76,1.0,4.0,23,0.00,,,0.00,775.0,meteohub,2013-09-18 21:06:00,
2013-09-18 14:11:00,83.5,40.6,29.97,SW,217,1.0,6.0,22,0.00,,,0.00,770.0,meteohub,2013-09-18 21:11:00,
2013-09-18 14:16:00,84.2,41.2,29.97,South,169,2.0,6.0,22,0.00,,,0.00,763.0,meteohub,2013-09-18 21:16:00,
2013-09-18 14:22:00,84.6,42.6,29.97,South,187,1.0,6.0,23,0.00,,,0.00,758.0,meteohub,2013-09-18 21:22:00,
2013-09-18 14:27:00,85.8,42.6,29.96,SW,236,0.0,6.0,22,0.00,,,0.00,754.0,meteohub,2013-09-18 21:27:00,
2013-09-18 14:32:00,86.5,43.2,29.96,SSW,212,5.0,5.0,22,0.00,,,0.00,744.0,meteohub,2013-09-18 21:32:00,
2013-09-18 14:37:00,86.5,47.7,29.96,West,259,4.0,5.0,26,0.00,,,0.00,733.0,meteohub,2013-09-18 21:37:00,
2013-09-18 14:42:00,86.5,46.6,29.96,NW,309,3.0,6.0,25,0.00,,,0.00,726.0,meteohub,2013-09-18 21:42:00,
2013-09-18 14:47:00,86.5,47.7,29.96,SW,235,3.0,8.0,26,0.00,,,0.00,721.0,meteohub,2013-09-18 21:47:00,
2013-09-18 14:53:00,86.7,48.7,29.96,West,274,3.0,8.0,27,0.00,,,0.00,712.0,meteohub,2013-09-18 21:53:00,
2013-09-18 14:58:00,86.7,46.8,29.96,SW,234,4.0,8.0,25,0.00,,,0.00,700.0,meteohub,2013-09-18 21:58:00,
2013-09-18 15:03:00,85.8,46.9,29.96,SSW,204,7.0,8.0,26,0.00,,,0.00,694.0,meteohub,2013-09-18 22:03:00,
2013-09-18 15:09:00,84.7,47.1,29.96,SW,221,5.0,9.0,27,0.00,,,0.00,687.0,meteohub,2013-09-18 22:09:00,
2013-09-18 15:14:00,84.2,46.6,29.96,SW,228,7.0,14.0,27,0.00,,,0.00,679.0,meteohub,2013-09-18 22:14:00,
2013-09-18 15:19:00,83.3,46.8,29.96,SSW,209,7.0,14.0,28,0.00,,,0.00,666.0,meteohub,2013-09-18 22:19:00,
2013-09-18 15:25:00,82.6,47.1,29.95,SW,228,10.0,14.0,29,0.00,,,0.00,657.0,meteohub,2013-09-18 22:25:00,
2013-09-18 15:30:00,82.4,46.0,29.95,SSW,205,8.0,13.0,28,0.00,,,0.00,645.0,meteohub,2013-09-18 22:30:00,
2013-09-18 15:35:00,82.6,45.1,29.95,SW,236,6.0,12.0,27,0.00,,,0.00,633.0,meteohub,2013-09-18 22:35:00,
2013-09-18 15:41:00,82.8,45.3,29.95,WSW,243,4.0,12.0,27,0.00,,,0.00,621.0,meteohub,2013-09-18 22:41:00,
2013-09-18 15:46:00,83.7,44.1,29.95,WSW,255,7.0,12.0,25,0.00,,,0.00,610.0,meteohub,2013-09-18 22:46:00,
2013-09-18 15:51:00,83.3,44.8,29.95,WSW,257,2.0,12.0,26,0.00,,,0.00,596.0,meteohub,2013-09-18 22:51:00,
2013-09-18 15:56:00,83.5,43.9,29.94,SW,223,4.0,12.0,25,0.00,,,0.00,585.0,meteohub,2013-09-18 22:56:00,
2013-09-18 16:02:00,83.5,43.0,29.94,SSW,211,4.0,12.0,24,0.00,,,0.00,575.0,meteohub,2013-09-18 23:02:00,
2013-09-18 16:07:00,83.3,42.8,29.94,WSW,241,6.0,10.0,24,0.00,,,0.00,563.0,meteohub,2013-09-18 23:07:00,
2013-09-18 16:13:00,82.6,44.2,29.95,SW,221,2.0,13.0,26,0.00,,,0.00,548.0,meteohub,2013-09-18 23:13:00,
2013-09-18 16:18:00,82.6,45.1,29.95,SW,224,11.0,13.0,27,0.00,,,0.00,533.0,meteohub,2013-09-18 23:18:00,
2013-09-18 16:24:00,81.9,45.5,29.95,WSW,237,10.0,14.0,28,0.00,,,0.00,520.0,meteohub,2013-09-18 23:24:00,
2013-09-18 16:30:00,81.1,45.9,29.95,SW,217,8.0,14.0,29,0.00,,,0.00,501.0,meteohub,2013-09-18 23:30:00,
2013-09-18 16:35:00,80.8,45.5,29.95,SW,228,7.0,13.0,29,0.00,,,0.00,485.0,meteohub,2013-09-18 23:35:00,
2013-09-18 16:41:00,81.1,46.8,29.95,WSW,245,3.0,13.0,30,0.00,,,0.00,471.0,meteohub,2013-09-18 23:41:00,
2013-09-18 16:46:00,81.3,46.9,29.95,WSW,248,3.0,13.0,30,0.00,,,0.00,454.0,meteohub,2013-09-18 23:46:00,
2013-09-18 16:51:00,81.7,47.3,29.95,West,259,6.0,10.0,30,0.00,,,0.00,436.0,meteohub,2013-09-18 23:51:00,
2013-09-18 16:56:00,81.3,47.8,29.95,WSW,248,3.0,8.0,31,0.00,,,0.00,420.0,meteohub,2013-09-18 23:56:00,
2013-09-18 17:02:00,81.0,47.5,29.95,West,261,5.0,8.0,31,0.00,,,0.00,404.0,meteohub,2013-09-19 00:02:00,
2013-09-18 17:07:00,81.0,48.4,29.95,SW,223,6.0,10.0,32,0.00,,,0.00,388.0,meteohub,2013-09-19 00:07:00,
2013-09-18 17:12:00,80.4,46.9,29.95,WSW,243,7.0,10.0,31,0.00,,,0.00,373.0,meteohub,2013-09-19 00:12:00,
2013-09-18 17:17:00,80.1,47.5,29.94,WSW,254,6.0,10.0,32,0.00,,,0.00,359.0,meteohub,2013-09-19 00:17:00,
2013-09-18 17:22:00,80.2,47.7,29.94,WSW,246,6.0,10.0,32,0.00,,,0.00,339.0,meteohub,2013-09-19 00:22:00,
2013-09-18 17:27:00,80.2,47.7,29.94,WSW,254,4.0,10.0,32,0.00,,,0.00,323.0,meteohub,2013-09-19 00:27:00,
2013-09-18 17:33:00,80.2,47.7,29.94,WSW,250,4.0,10.0,32,0.00,,,0.00,306.0,meteohub,2013-09-19 00:33:00,
2013-09-18 17:38:00,79.9,48.2,29.94,SW,230,8.0,10.0,33,0.00,,,0.00,287.0,meteohub,2013-09-19 00:38:00,
2013-09-18 17:43:00,79.5,47.8,29.94,SW,227,8.0,10.0,33,0.00,,,0.00,269.0,meteohub,2013-09-19 00:43:00,
2013-09-18 17:49:00,79.2,47.7,29.94,WSW,257,8.0,10.0,33,0.00,,,0.00,251.0,meteohub,2013-09-19 00:49:00,
2013-09-18 17:54:00,79.0,48.2,29.94,WSW,242,4.0,10.0,34,0.00,,,0.00,230.0,meteohub,2013-09-19 00:54:00,
2013-09-18 17:59:00,78.4,47.7,29.95,SW,223,6.0,10.0,34,0.00,,,0.00,211.0,meteohub,2013-09-19 00:59:00,
2013-09-18 18:04:00,77.7,47.1,29.94,West,262,6.0,10.0,34,0.00,,,0.00,192.0,meteohub,2013-09-19 01:04:00,
2013-09-18 18:09:00,77.2,47.5,29.94,West,268,5.0,13.0,35,0.00,,,0.00,171.0,meteohub,2013-09-19 01:09:00,
2013-09-18 18:15:00,76.6,46.9,29.94,West,274,5.0,13.0,35,0.00,,,0.00,146.0,meteohub,2013-09-19 01:15:00,
2013-09-18 18:20:00,76.3,47.3,29.95,WSW,249,4.0,10.0,36,0.00,,,0.00,127.0,meteohub,2013-09-19 01:20:00,
2013-09-18 18:25:00,75.7,47.7,29.95,WSW,247,4.0,10.0,37,0.00,,,0.00,109.0,meteohub,2013-09-19 01:25:00,
2013-09-18 18:30:00,75.2,47.8,29.95,SSW,209,7.0,10.0,38,0.00,,,0.00,51.0,meteohub,2013-09-19 01:30:00,
2013-09-18 18:36:00,74.5,47.1,29.95,West,267,5.0,10.0,38,0.00,,,0.00,39.0,meteohub,2013-09-19 01:36:00,
2013-09-18 18:42:00,73.9,47.5,29.95,WSW,240,6.0,10.0,39,0.00,,,0.00,37.0,meteohub,2013-09-19 01:42:00,
2013-09-18 18:47:00,73.4,47.7,29.95,WSW,242,4.0,11.0,40,0.00,,,0.00,33.0,meteohub,2013-09-19 01:47:00,
2013-09-18 18:52:00,73.0,47.3,29.95,WSW,254,5.0,11.0,40,0.00,,,0.00,30.0,meteohub,2013-09-19 01:52:00,
2013-09-18 18:57:00,72.7,46.9,29.95,WSW,243,4.0,10.0,40,0.00,,,0.00,18.0,meteohub,2013-09-19 01:57:00,
2013-09-18 19:02:00,72.1,47.1,29.95,SW,236,6.0,9.0,41,0.00,,,0.00,11.0,meteohub,2013-09-19 02:02:00,
2013-09-18 19:07:00,71.8,46.8,29.95,WSW,247,4.0,9.0,41,0.00,,,0.00,5.0,meteohub,2013-09-19 02:07:00,
2013-09-18 19:12:00,71.2,46.4,29.95,WSW,258,4.0,9.0,41,0.00,,,0.00,0.0,meteohub,2013-09-19 02:12:00,
2013-09-18 19:17:00,70.9,46.6,29.95,WSW,250,3.0,8.0,42,0.00,,,0.00,0.0,meteohub,2013-09-19 02:17:00,
2013-09-18 19:22:00,70.5,46.9,29.95,WSW,248,3.0,8.0,43,0.00,,,0.00,0.0,meteohub,2013-09-19 02:22:00,
2013-09-18 19:27:00,70.2,47.3,29.95,WSW,252,4.0,6.0,44,0.00,,,0.00,0.0,meteohub,2013-09-19 02:27:00,
2013-09-18 19:32:00,69.6,47.3,29.95,SW,234,2.0,6.0,45,0.00,,,0.00,0.0,meteohub,2013-09-19 02:32:00,
2013-09-18 19:37:00,69.3,46.9,29.95,SW,230,1.0,5.0,45,0.00,,,0.00,0.0,meteohub,2013-09-19 02:37:00,
2013-09-18 19:43:00,69.1,46.8,29.96,WSW,248,0.0,5.0,45,0.00,,,0.00,0.0,meteohub,2013-09-19 02:43:00,
2013-09-18 19:48:00,68.7,45.9,29.96,WSW,237,0.0,5.0,44,0.00,,,0.00,0.0,meteohub,2013-09-19 02:48:00,
2013-09-18 19:53:00,68.5,45.7,29.96,WSW,252,1.0,4.0,44,0.00,,,0.00,0.0,meteohub,2013-09-19 02:53:00,
2013-09-18 19:59:00,68.4,45.7,29.96,WSW,240,1.0,4.0,44,0.00,,,0.00,0.0,meteohub,2013-09-19 02:59:00,
2013-09-18 20:04:00,68.2,45.5,29.96,WSW,238,0.0,6.0,44,0.00,,,0.00,0.0,meteohub,2013-09-19 03:04:00,
2013-09-18 20:09:00,68.0,45.3,29.96,WSW,238,0.0,6.0,44,0.00,,,0.00,0.0,meteohub,2013-09-19 03:09:00,
2013-09-18 20:16:00,67.8,45.1,29.96,WSW,238,2.0,3.0,44,0.00,,,0.00,0.0,meteohub,2013-09-19 03:16:00,
2013-09-18 20:21:00,67.8,45.1,29.96,WSW,238,0.0,3.0,44,0.00,,,0.00,0.0,meteohub,2013-09-19 03:21:00,
2013-09-18 20:26:00,67.6,45.0,29.96,WSW,238,1.0,3.0,44,0.00,,,0.00,0.0,meteohub,2013-09-19 03:26:00,
2013-09-18 20:31:00,67.6,45.0,29.96,WSW,238,0.0,2.0,44,0.00,,,0.00,0.0,meteohub,2013-09-19 03:31:00,
2013-09-18 20:37:00,67.6,44.4,29.96,WSW,238,0.0,2.0,43,0.00,,,0.00,0.0,meteohub,2013-09-19 03:37:00,
2013-09-18 20:42:00,67.5,44.2,29.96,WSW,238,0.0,1.0,43,0.00,,,0.00,0.0,meteohub,2013-09-19 03:42:00,
2013-09-18 20:47:00,67.5,44.2,29.97,WSW,238,0.0,0.0,43,0.00,,,0.00,0.0,meteohub,2013-09-19 03:47:00,
2013-09-18 20:52:00,67.3,44.1,29.97,WSW,238,0.0,1.0,43,0.00,,,0.00,0.0,meteohub,2013-09-19 03:52:00,
2013-09-18 20:58:00,66.9,43.7,29.97,WSW,238,0.0,1.0,43,0.00,,,0.00,0.0,meteohub,2013-09-19 03:58:00,
2013-09-18 21:01:00,66.9,44.2,29.97,WSW,238,0.0,1.0,44,0.00,,,0.00,0.0,meteohub,2013-09-19 04:01:00,
2013-09-18 21:02:00,66.9,43.7,29.97,WSW,238,0.0,1.0,43,0.00,,,0.00,0.0,meteohub,2013-09-19 04:02:00,
2013-09-18 21:05:00,66.7,44.1,29.97,WSW,238,0.0,1.0,44,0.00,,,0.00,0.0,meteohub,2013-09-19 04:05:00,
2013-09-18 21:08:00,66.7,44.1,29.97,WSW,238,0.0,1.0,44,0.00,,,0.00,0.0,meteohub,2013-09-19 04:08:00,
2013-09-18 21:13:00,66.6,44.1,29.97,WSW,238,0.0,1.0,44,0.00,,,0.00,0.0,meteohub,2013-09-19 04:13:00,
2013-09-18 21:18:00,66.4,43.9,29.97,WSW,238,0.0,1.0,44,0.00,,,0.00,0.0,meteohub,2013-09-19 04:18:00,
2013-09-18 21:23:00,66.0,44.1,29.97,WSW,238,0.0,0.0,45,0.00,,,0.00,0.0,meteohub,2013-09-19 04:23:00,
2013-09-18 21:28:00,65.7,43.7,29.97,WSW,238,0.0,0.0,45,0.00,,,0.00,0.0,meteohub,2013-09-19 04:28:00,
2013-09-18 21:33:00,65.3,42.8,29.97,WSW,238,0.0,0.0,44,0.00,,,0.00,0.0,meteohub,2013-09-19 04:33:00,
2013-09-18 21:38:00,64.9,43.2,29.97,WSW,238,0.0,0.0,45,0.00,,,0.00,0.0,meteohub,2013-09-19 04:38:00,
2013-09-18 21:43:00,64.6,42.8,29.97,WSW,238,0.0,0.0,45,0.00,,,0.00,0.0,meteohub,2013-09-19 04:43:00,
2013-09-18 21:48:00,64.2,42.4,29.97,WSW,238,0.0,0.0,45,0.00,,,0.00,0.0,meteohub,2013-09-19 04:48:00,
2013-09-18 21:53:00,63.9,43.2,29.97,WSW,238,0.0,0.0,47,0.00,,,0.00,0.0,meteohub,2013-09-19 04:53:00,
2013-09-18 21:58:00,63.7,43.2,29.97,WSW,238,0.0,1.0,47,0.00,,,0.00,0.0,meteohub,2013-09-19 04:58:00,
2013-09-18 22:03:00,63.5,43.5,29.97,WSW,238,0.0,1.0,48,0.00,,,0.00,0.0,meteohub,2013-09-19 05:03:00,
2013-09-18 22:08:00,63.3,42.8,29.97,WSW,238,0.0,1.0,47,0.00,,,0.00,0.0,meteohub,2013-09-19 05:08:00,
2013-09-18 22:14:00,63.1,43.2,29.97,WSW,238,0.0,1.0,48,0.00,,,0.00,0.0,meteohub,2013-09-19 05:14:00,
2013-09-18 22:19:00,63.0,43.5,29.97,WSW,238,0.0,1.0,49,0.00,,,0.00,0.0,meteohub,2013-09-19 05:19:00,
2013-09-18 22:24:00,62.6,44.2,29.97,WSW,238,0.0,0.0,51,0.00,,,0.00,0.0,meteohub,2013-09-19 05:24:00,
2013-09-18 22:29:00,62.4,44.1,29.97,WSW,238,0.0,0.0,51,0.00,,,0.00,0.0,meteohub,2013-09-19 05:29:00,
2013-09-18 22:34:00,62.2,43.9,29.97,WSW,238,0.0,0.0,51,0.00,,,0.00,0.0,meteohub,2013-09-19 05:34:00,
2013-09-18 22:39:00,62.1,43.7,29.97,WSW,238,0.0,0.0,51,0.00,,,0.00,0.0,meteohub,2013-09-19 05:39:00,
2013-09-18 22:44:00,61.9,44.1,29.97,WSW,238,0.0,1.0,52,0.00,,,0.00,0.0,meteohub,2013-09-19 05:44:00,
2013-09-18 22:49:00,61.7,43.9,29.97,WSW,238,0.0,1.0,52,0.00,,,0.00,0.0,meteohub,2013-09-19 05:49:00,
2013-09-18 22:54:00,61.5,43.7,29.97,WSW,238,0.0,0.0,52,0.00,,,0.00,0.0,meteohub,2013-09-19 05:54:00,
2013-09-18 22:59:00,61.3,44.1,29.97,WSW,238,0.0,0.0,53,0.00,,,0.00,0.0,meteohub,2013-09-19 05:59:00,
2013-09-18 23:04:00,61.3,44.1,29.97,WSW,238,0.0,0.0,53,0.00,,,0.00,0.0,meteohub,2013-09-19 06:04:00,
2013-09-18 23:09:00,61.2,43.9,29.97,WSW,238,0.0,0.0,53,0.00,,,0.00,0.0,meteohub,2013-09-19 06:09:00,
2013-09-18 23:14:00,61.2,43.9,29.97,WSW,238,0.0,0.0,53,0.00,,,0.00,0.0,meteohub,2013-09-19 06:14:00,
2013-09-18 23:19:00,61.0,43.7,29.97,WSW,238,0.0,0.0,53,0.00,,,0.00,0.0,meteohub,2013-09-19 06:19:00,
2013-09-18 23:24:00,60.8,44.1,29.97,WSW,238,0.0,0.0,54,0.00,,,0.00,0.0,meteohub,2013-09-19 06:24:00,
2013-09-18 23:30:00,60.6,43.9,29.97,WSW,238,0.0,0.0,54,0.00,,,0.00,0.0,meteohub,2013-09-19 06:30:00,
2013-09-18 23:35:00,60.3,44.4,29.97,WSW,238,0.0,0.0,56,0.00,,,0.00,0.0,meteohub,2013-09-19 06:35:00,
2013-09-18 23:40:00,60.1,45.3,29.96,WSW,238,0.0,0.0,58,0.00,,,0.00,0.0,meteohub,2013-09-19 06:40:00,
2013-09-18 23:45:00,59.7,45.0,29.96,WSW,238,0.0,0.0,58,0.00,,,0.00,0.0,meteohub,2013-09-19 06:45:00,
2013-09-18 23:50:00,59.5,44.8,29.96,WSW,238,0.0,0.0,58,0.00,,,0.00,0.0,meteohub,2013-09-19 06:50:00,
2013-09-18 23:55:00,59.4,44.6,29.96,WSW,238,0.0,0.0,58,0.00,,,0.00,0.0,meteohub,2013-09-19 06:55:00,